Time,TemperatureF,DewpointF,PressureIn,WindDirection,WindDirectionDegrees,WindSpeedMPH,WindSpeedGustMPH,Humidity,HourlyPrecipIn,Conditions,Clouds,dailyrainin,SoftwareType,DateUTC
2013-01-23 01:34:00,10.5,2.3,30.36,West,259,6.0,7.0,69,0.00,,,0.00,Wunderground v.1.15,2013-01-23 06:34:00,
2013-01-23 01:42:00,10.5,2.3,30.36,West,266,7.0,7.0,69,0.00,,,0.00,Wunderground v.1.15,2013-01-23 06:42:00,
2013-01-23 01:43:00,10.6,2.1,30.36,West,264,7.0,7.0,68,0.00,,,0.00,Wunderground v.1.15,2013-01-23 06:43:00,
2013-01-23 02:20:00,10.3,2.1,30.36,West,262,7.0,11.0,69,0.00,,,0.00,Wunderground v.1.15,2013-01-23 07:20:00,
2013-01-23 06:50:00,11.6,3.4,30.33,WSW,248,6.0,12.0,69,0.00,,,0.00,Wunderground v.1.15,2013-01-23 11:50:00,
2013-01-23 06:55:00,11.6,3.4,30.33,WSW,254,6.0,12.0,69,0.00,,,0.00,Wunderground v.1.15,2013-01-23 11:55:00,
2013-01-23 07:00:00,11.5,3.0,30.33,West,260,7.0,8.0,68,0.00,,,0.00,Wunderground v.1.15,2013-01-23 12:00:00,
2013-01-23 07:06:00,11.5,3.0,30.33,WSW,252,7.0,11.0,68,0.00,,,0.00,Wunderground v.1.15,2013-01-23 12:06:00,
2013-01-23 07:12:00,11.6,3.1,30.33,WSW,255,7.0,7.0,68,0.00,,,0.00,Wunderground v.1.15,2013-01-23 12:12:00,
2013-01-23 07:18:00,11.6,3.1,30.33,WSW,255,6.0,7.0,68,0.00,,,0.00,Wunderground v.1.15,2013-01-23 12:18:00,
2013-01-23 07:24:00,11.6,3.1,30.33,WSW,242,6.0,8.0,68,0.00,,,0.00,Wunderground v.1.15,2013-01-23 12:24:00,
2013-01-23 07:30:00,11.7,3.5,30.32,WSW,250,6.0,6.0,69,0.00,,,0.00,Wunderground v.1.15,2013-01-23 12:30:00,
2013-01-23 07:38:00,11.7,3.2,30.32,West,259,6.0,6.0,68,0.00,,,0.00,Wunderground v.1.15,2013-01-23 12:38:00,
2013-01-23 07:44:00,11.7,3.5,30.33,WSW,256,6.0,6.0,69,0.00,,,0.00,Wunderground v.1.15,2013-01-23 12:44:00,
2013-01-23 07:50:00,11.8,3.6,30.33,WSW,253,6.0,6.0,69,0.00,,,0.00,Wunderground v.1.15,2013-01-23 12:50:00,
2013-01-23 07:58:00,11.8,3.3,30.32,WSW,249,6.0,7.0,68,0.00,,,0.00,Wunderground v.1.15,2013-01-23 12:58:00,
2013-01-23 08:04:00,11.9,3.4,30.32,WSW,256,6.0,8.0,68,0.00,,,0.00,Wunderground v.1.15,2013-01-23 13:04:00,
2013-01-23 08:10:00,11.9,3.4,30.32,WSW,240,6.0,6.0,68,0.00,,,0.00,Wunderground v.1.15,2013-01-23 13:10:00,
2013-01-23 08:16:00,11.9,3.0,30.32,West,270,6.0,7.0,67,0.00,,,0.00,Wunderground v.1.15,2013-01-23 13:16:00,
2013-01-23 08:22:00,12.0,3.1,30.32,West,261,6.0,8.0,67,0.00,,,0.00,Wunderground v.1.15,2013-01-23 13:22:00,
2013-01-23 08:28:00,12.1,3.2,30.32,West,259,6.0,8.0,67,0.00,,,0.00,Wunderground v.1.15,2013-01-23 13:28:00,
2013-01-23 08:34:00,12.1,3.2,30.32,West,266,6.0,7.0,67,0.00,,,0.00,Wunderground v.1.15,2013-01-23 13:34:00,
2013-01-23 08:40:00,12.2,3.3,30.32,SW,226,6.0,8.0,67,0.00,,,0.00,Wunderground v.1.15,2013-01-23 13:40:00,
2013-01-23 08:46:00,12.3,3.7,30.32,WSW,253,6.0,8.0,68,0.00,,,0.00,Wunderground v.1.15,2013-01-23 13:46:00,
2013-01-23 08:52:00,12.3,3.4,30.32,WSW,246,5.0,6.0,67,0.00,,,0.00,Wunderground v.1.15,2013-01-23 13:52:00,
2013-01-23 08:58:00,12.4,3.5,30.32,WSW,243,5.0,6.0,67,0.00,,,0.00,Wunderground v.1.15,2013-01-23 13:58:00,
2013-01-23 09:04:00,12.5,3.6,30.32,WSW,245,5.0,7.0,67,0.00,,,0.00,Wunderground v.1.15,2013-01-23 14:04:00,
2013-01-23 09:10:00,12.6,3.7,30.31,SW,222,6.0,8.0,67,0.00,,,0.00,Wunderground v.1.15,2013-01-23 14:10:00,
2013-01-23 09:16:00,12.7,4.1,30.31,SW,222,6.0,8.0,68,0.00,,,0.00,Wunderground v.1.15,2013-01-23 14:16:00,
2013-01-23 09:22:00,12.9,4.3,30.31,WSW,252,6.0,6.0,68,0.00,,,0.00,Wunderground v.1.15,2013-01-23 14:22:00,
2013-01-23 09:28:00,13.0,4.1,30.31,WSW,250,7.0,10.0,67,0.00,,,0.00,Wunderground v.1.15,2013-01-23 14:28:00,
2013-01-23 09:34:00,13.4,4.5,30.32,West,263,8.0,9.0,67,0.00,,,0.00,Wunderground v.1.15,2013-01-23 14:34:00,
2013-01-23 09:40:00,13.6,4.0,30.32,WSW,238,8.0,8.0,65,0.00,,,0.00,Wunderground v.1.15,2013-01-23 14:40:00,
2013-01-23 09:46:00,13.5,4.2,30.32,SW,235,8.0,10.0,66,0.00,,,0.00,Wunderground v.1.15,2013-01-23 14:46:00,
2013-01-23 09:52:00,13.6,4.3,30.31,SW,235,7.0,11.0,66,0.00,,,0.00,Wunderground v.1.15,2013-01-23 14:52:00,
2013-01-23 09:58:00,13.9,4.6,30.31,WSW,245,7.0,11.0,66,0.00,,,0.00,Wunderground v.1.15,2013-01-23 14:58:00,
2013-01-23 10:04:00,14.0,4.4,30.32,WSW,239,8.0,10.0,65,0.00,,,0.00,Wunderground v.1.15,2013-01-23 15:04:00,
2013-01-23 10:10:00,14.3,4.3,30.31,SW,229,9.0,9.0,64,0.00,,,0.00,Wunderground v.1.15,2013-01-23 15:10:00,
2013-01-23 10:16:00,14.2,3.9,30.31,WSW,252,9.0,10.0,63,0.00,,,0.00,Wunderground v.1.15,2013-01-23 15:16:00,
2013-01-23 10:22:00,14.2,3.9,30.31,SW,227,9.0,9.0,63,0.00,,,0.00,Wunderground v.1.15,2013-01-23 15:22:00,
2013-01-23 10:28:00,14.5,4.5,30.30,WSW,245,9.0,9.0,64,0.00,,,0.00,Wunderground v.1.15,2013-01-23 15:28:00,
2013-01-23 10:34:00,14.7,4.4,30.30,SW,226,8.0,9.0,63,0.00,,,0.00,Wunderground v.1.15,2013-01-23 15:34:00,
2013-01-23 10:40:00,14.9,4.9,30.30,SW,236,9.0,9.0,64,0.00,,,0.00,Wunderground v.1.15,2013-01-23 15:40:00,
2013-01-23 10:46:00,15.1,5.8,30.31,SW,229,9.0,9.0,66,0.00,,,0.00,Wunderground v.1.15,2013-01-23 15:46:00,
2013-01-23 10:52:00,15.2,5.2,30.31,SW,235,9.0,12.0,64,0.00,,,0.00,Wunderground v.1.15,2013-01-23 15:52:00,
2013-01-23 10:58:00,15.5,5.1,30.30,WSW,240,10.0,12.0,63,0.00,,,0.00,Wunderground v.1.15,2013-01-23 15:58:00,
2013-01-23 11:04:00,15.7,5.3,30.30,SW,234,10.0,11.0,63,0.00,,,0.00,Wunderground v.1.15,2013-01-23 16:04:00,
2013-01-23 11:10:00,15.9,5.2,30.30,SW,222,9.0,9.0,62,0.00,,,0.00,Wunderground v.1.15,2013-01-23 16:10:00,
2013-01-23 11:16:00,15.9,5.5,30.29,WSW,243,9.0,9.0,63,0.00,,,0.00,Wunderground v.1.15,2013-01-23 16:16:00,
2013-01-23 11:22:00,16.0,5.3,30.29,SW,235,8.0,11.0,62,0.00,,,0.00,Wunderground v.1.15,2013-01-23 16:22:00,
2013-01-23 11:28:00,16.1,5.0,30.30,SW,229,10.0,13.0,61,0.00,,,0.00,Wunderground v.1.15,2013-01-23 16:28:00,
2013-01-23 11:34:00,16.1,5.4,30.29,WSW,242,10.0,12.0,62,0.00,,,0.00,Wunderground v.1.15,2013-01-23 16:34:00,
2013-01-23 11:40:00,16.2,5.8,30.29,SW,226,9.0,14.0,63,0.00,,,0.00,Wunderground v.1.15,2013-01-23 16:40:00,
2013-01-23 11:46:00,16.6,6.2,30.29,WSW,238,10.0,14.0,63,0.00,,,0.00,Wunderground v.1.15,2013-01-23 16:46:00,
2013-01-23 11:52:00,16.7,5.9,30.28,SW,235,10.0,12.0,62,0.00,,,0.00,Wunderground v.1.15,2013-01-23 16:52:00,
2013-01-23 11:58:00,16.7,5.6,30.28,WSW,239,11.0,12.0,61,0.00,,,0.00,Wunderground v.1.15,2013-01-23 16:58:00,
2013-01-23 12:04:00,16.9,6.1,30.28,WSW,237,11.0,12.0,62,0.00,,,0.00,Wunderground v.1.15,2013-01-23 17:04:00,
2013-01-23 12:10:00,16.9,6.1,30.28,WSW,239,11.0,11.0,62,0.00,,,0.00,Wunderground v.1.15,2013-01-23 17:10:00,
2013-01-23 12:16:00,17.0,5.9,30.27,SW,229,10.0,12.0,61,0.00,,,0.00,Wunderground v.1.15,2013-01-23 17:16:00,
2013-01-23 12:22:00,17.2,6.4,30.26,WSW,238,10.0,10.0,62,0.00,,,0.00,Wunderground v.1.15,2013-01-23 17:22:00,
2013-01-23 12:28:00,17.3,6.1,30.26,WSW,246,9.0,11.0,61,0.00,,,0.00,Wunderground v.1.15,2013-01-23 17:28:00,
2013-01-23 12:34:00,17.2,5.7,30.26,SW,226,9.0,10.0,60,0.00,,,0.00,Wunderground v.1.15,2013-01-23 17:34:00,
2013-01-23 12:40:00,17.4,6.2,30.25,SW,231,8.0,10.0,61,0.00,,,0.00,Wunderground v.1.15,2013-01-23 17:40:00,
2013-01-23 12:46:00,17.7,6.5,30.25,West,264,8.0,10.0,61,0.00,,,0.00,Wunderground v.1.15,2013-01-23 17:46:00,
2013-01-23 12:52:00,17.5,5.2,30.25,WSW,255,8.0,8.0,58,0.00,,,0.00,Wunderground v.1.15,2013-01-23 17:52:00,
2013-01-23 12:58:00,17.7,5.0,30.25,WSW,252,8.0,11.0,57,0.00,,,0.00,Wunderground v.1.15,2013-01-23 17:58:00,
2013-01-23 13:04:00,17.8,5.1,30.24,West,274,8.0,10.0,57,0.00,,,0.00,Wunderground v.1.15,2013-01-23 18:04:00,
2013-01-23 13:10:00,17.8,4.7,30.24,WSW,256,7.0,7.0,56,0.00,,,0.00,Wunderground v.1.15,2013-01-23 18:10:00,
2013-01-23 13:16:00,18.2,5.5,30.23,West,260,7.0,7.0,57,0.00,,,0.00,Wunderground v.1.15,2013-01-23 18:16:00,
2013-01-23 13:22:00,18.3,4.8,30.23,WSW,257,6.0,8.0,55,0.00,,,0.00,Wunderground v.1.15,2013-01-23 18:22:00,
2013-01-23 13:28:00,18.3,4.0,30.23,WSW,251,7.0,9.0,53,0.00,,,0.00,Wunderground v.1.15,2013-01-23 18:28:00,
2013-01-23 13:34:00,18.3,4.8,30.22,WSW,250,7.0,9.0,55,0.00,,,0.00,Wunderground v.1.15,2013-01-23 18:34:00,
2013-01-23 13:40:00,18.4,5.3,30.22,WSW,258,7.0,8.0,56,0.00,,,0.00,Wunderground v.1.15,2013-01-23 18:40:00,
2013-01-23 13:46:00,18.3,5.2,30.21,SW,228,7.0,8.0,56,0.00,,,0.00,Wunderground v.1.15,2013-01-23 18:46:00,
2013-01-23 13:52:00,18.3,6.0,30.21,West,273,8.0,8.0,58,0.00,,,0.00,Wunderground v.1.15,2013-01-23 18:52:00,
2013-01-23 13:58:00,18.5,6.5,30.20,WSW,246,8.0,12.0,59,0.00,,,0.00,Wunderground v.1.15,2013-01-23 18:58:00,
2013-01-23 14:04:00,18.4,7.5,30.20,West,278,8.0,9.0,62,0.00,,,0.00,Wunderground v.1.15,2013-01-23 19:04:00,
2013-01-23 14:10:00,18.3,8.1,30.20,WSW,252,8.0,10.0,64,0.00,,,0.00,Wunderground v.1.15,2013-01-23 19:10:00,
2013-01-23 14:16:00,18.2,8.7,30.20,WSW,249,9.0,10.0,66,0.00,,,0.00,Wunderground v.1.15,2013-01-23 19:16:00,
2013-01-23 14:23:00,18.2,9.1,30.19,WSW,239,9.0,9.0,67,0.00,,,0.00,Wunderground v.1.15,2013-01-23 19:23:00,
2013-01-23 14:28:00,18.2,9.7,30.19,WSW,250,9.0,9.0,69,0.00,,,0.00,Wunderground v.1.15,2013-01-23 19:28:00,
2013-01-23 14:34:00,18.2,9.7,30.19,SW,236,8.0,9.0,69,0.00,,,0.00,Wunderground v.1.15,2013-01-23 19:34:00,
2013-01-23 14:40:00,18.3,10.5,30.18,SW,235,8.0,9.0,71,0.00,,,0.00,Wunderground v.1.15,2013-01-23 19:40:00,
2013-01-23 14:46:00,18.4,10.6,30.18,West,274,9.0,11.0,71,0.00,,,0.00,Wunderground v.1.15,2013-01-23 19:46:00,
2013-01-23 14:52:00,18.4,10.2,30.18,WSW,246,10.0,11.0,70,0.00,,,0.00,Wunderground v.1.15,2013-01-23 19:52:00,
2013-01-23 14:58:00,18.4,10.9,30.18,SW,233,9.0,11.0,72,0.00,,,0.00,Wunderground v.1.15,2013-01-23 19:58:00,
2013-01-23 15:04:00,18.6,11.4,30.18,WSW,256,8.0,9.0,73,0.00,,,0.00,Wunderground v.1.15,2013-01-23 20:04:00,
2013-01-23 15:10:00,18.8,11.6,30.18,West,262,7.0,9.0,73,0.00,,,0.00,Wunderground v.1.15,2013-01-23 20:10:00,
2013-01-23 15:16:00,18.6,11.4,30.18,WNW,285,7.0,9.0,73,0.00,,,0.00,Wunderground v.1.15,2013-01-23 20:16:00,
2013-01-23 15:22:00,18.6,11.1,30.17,West,274,7.0,8.0,72,0.00,,,0.00,Wunderground v.1.15,2013-01-23 20:22:00,
2013-01-23 15:28:00,18.8,11.3,30.17,WSW,240,7.0,8.0,72,0.00,,,0.00,Wunderground v.1.15,2013-01-23 20:28:00,
2013-01-23 15:34:00,19.0,11.1,30.17,WSW,243,7.0,7.0,71,0.00,,,0.00,Wunderground v.1.15,2013-01-23 20:34:00,
2013-01-23 15:40:00,19.0,10.8,30.17,WSW,257,8.0,10.0,70,0.00,,,0.00,Wunderground v.1.15,2013-01-23 20:40:00,
2013-01-23 15:46:00,19.2,11.0,30.17,SSW,210,8.0,10.0,70,0.00,,,0.00,Wunderground v.1.15,2013-01-23 20:46:00,
2013-01-23 15:52:00,19.4,10.9,30.17,WSW,238,7.0,8.0,69,0.00,,,0.00,Wunderground v.1.15,2013-01-23 20:52:00,
2013-01-23 15:58:00,19.6,11.1,30.17,WSW,246,7.0,9.0,69,0.00,,,0.00,Wunderground v.1.15,2013-01-23 20:58:00,
2013-01-23 16:04:00,19.6,11.1,30.16,WSW,238,8.0,8.0,69,0.00,,,0.00,Wunderground v.1.15,2013-01-23 21:04:00,
2013-01-23 16:10:00,19.5,10.0,30.16,WSW,257,8.0,9.0,66,0.00,,,0.00,Wunderground v.1.15,2013-01-23 21:10:00,
2013-01-23 16:16:00,19.5,10.0,30.16,WSW,250,9.0,9.0,66,0.00,,,0.00,Wunderground v.1.15,2013-01-23 21:16:00,
2013-01-23 16:22:00,19.6,10.1,30.16,West,262,7.0,11.0,66,0.00,,,0.00,Wunderground v.1.15,2013-01-23 21:22:00,
2013-01-23 16:28:00,19.6,10.1,30.15,WSW,245,10.0,14.0,66,0.00,,,0.00,Wunderground v.1.15,2013-01-23 21:28:00,
2013-01-23 16:34:00,19.6,10.4,30.15,WSW,239,10.0,10.0,67,0.00,,,0.00,Wunderground v.1.15,2013-01-23 21:34:00,
2013-01-23 16:40:00,19.6,10.4,30.15,SW,226,9.0,11.0,67,0.00,,,0.00,Wunderground v.1.15,2013-01-23 21:40:00,
2013-01-23 16:46:00,19.7,10.5,30.15,SSW,208,9.0,11.0,67,0.00,,,0.00,Wunderground v.1.15,2013-01-23 21:46:00,
2013-01-23 16:52:00,19.7,10.5,30.15,SW,236,9.0,9.0,67,0.00,,,0.00,Wunderground v.1.15,2013-01-23 21:52:00,
2013-01-23 16:58:00,19.7,10.5,30.15,WSW,245,8.0,10.0,67,0.00,,,0.00,Wunderground v.1.15,2013-01-23 21:58:00,
2013-01-23 17:04:00,19.6,10.7,30.14,WSW,252,9.0,10.0,68,0.00,,,0.00,Wunderground v.1.15,2013-01-23 22:04:00,
2013-01-23 17:10:00,19.6,10.7,30.15,WSW,242,9.0,10.0,68,0.00,,,0.00,Wunderground v.1.15,2013-01-23 22:10:00,
2013-01-23 17:16:00,19.6,10.7,30.15,WSW,242,9.0,15.0,68,0.00,,,0.00,Wunderground v.1.15,2013-01-23 22:16:00,
2013-01-23 17:22:00,19.5,11.0,30.15,West,263,10.0,10.0,69,0.00,,,0.00,Wunderground v.1.15,2013-01-23 22:22:00,
2013-01-23 17:28:00,19.4,11.2,30.15,WSW,238,9.0,11.0,70,0.00,,,0.00,Wunderground v.1.15,2013-01-23 22:28:00,
2013-01-23 17:34:00,19.3,11.4,30.15,WSW,243,9.0,10.0,71,0.00,,,0.00,Wunderground v.1.15,2013-01-23 22:34:00,
2013-01-23 17:40:00,19.2,11.3,30.15,West,262,9.0,9.0,71,0.00,,,0.00,Wunderground v.1.15,2013-01-23 22:40:00,
2013-01-23 17:46:00,19.1,11.6,30.15,WSW,246,8.0,9.0,72,0.00,,,0.00,Wunderground v.1.15,2013-01-23 22:46:00,
2013-01-23 17:52:00,19.1,11.6,30.14,SW,236,7.0,8.0,72,0.00,,,0.00,Wunderground v.1.15,2013-01-23 22:52:00,
2013-01-23 17:58:00,19.1,11.6,30.15,WSW,248,7.0,8.0,72,0.00,,,0.00,Wunderground v.1.15,2013-01-23 22:58:00,
2013-01-23 18:04:00,19.0,12.1,30.15,SW,233,8.0,11.0,74,0.00,,,0.00,Wunderground v.1.15,2013-01-23 23:04:00,
2013-01-23 18:10:00,18.8,12.2,30.15,WSW,239,9.0,10.0,75,0.00,,,0.00,Wunderground v.1.15,2013-01-23 23:10:00,
2013-01-23 18:16:00,18.7,12.4,30.14,SW,235,9.0,10.0,76,0.00,,,0.00,Wunderground v.1.15,2013-01-23 23:16:00,
2013-01-23 18:22:00,18.7,12.7,30.15,WSW,255,9.0,9.0,77,0.00,,,0.00,Wunderground v.1.15,2013-01-23 23:22:00,
2013-01-23 18:28:00,18.6,12.6,30.14,SW,229,9.0,9.0,77,0.00,,,0.00,Wunderground v.1.15,2013-01-23 23:28:00,
2013-01-23 18:34:00,18.6,12.9,30.15,WSW,243,8.0,10.0,78,0.00,,,0.00,Wunderground v.1.15,2013-01-23 23:34:00,
2013-01-23 18:40:00,18.5,13.1,30.14,SW,225,8.0,8.0,79,0.00,,,0.00,Wunderground v.1.15,2013-01-23 23:40:00,
2013-01-23 18:46:00,18.4,13.3,30.13,SW,233,8.0,9.0,80,0.00,,,0.00,Wunderground v.1.15,2013-01-23 23:46:00,
2013-01-23 18:52:00,18.4,13.5,30.13,WSW,238,9.0,10.0,81,0.00,,,0.00,Wunderground v.1.15,2013-01-23 23:52:00,
2013-01-23 18:58:00,18.3,13.4,30.13,SW,228,10.0,11.0,81,0.00,,,0.00,Wunderground v.1.15,2013-01-23 23:58:00,
2013-01-23 19:04:00,18.3,13.4,30.12,SW,236,9.0,10.0,81,0.00,,,0.00,Wunderground v.1.15,2013-01-24 00:04:00,
2013-01-23 19:10:00,18.2,13.3,30.12,SW,225,8.0,8.0,81,0.00,,,0.00,Wunderground v.1.15,2013-01-24 00:10:00,
2013-01-23 19:16:00,18.2,13.6,30.11,WSW,241,8.0,8.0,82,0.00,,,0.00,Wunderground v.1.15,2013-01-24 00:16:00,
2013-01-23 19:22:00,18.2,13.6,30.12,WSW,245,7.0,7.0,82,0.00,,,0.00,Wunderground v.1.15,2013-01-24 00:22:00,
2013-01-23 19:28:00,18.2,13.6,30.12,SW,235,7.0,7.0,82,0.00,,,0.00,Wunderground v.1.15,2013-01-24 00:28:00,
2013-01-23 19:34:00,18.2,13.9,30.12,WSW,240,6.0,7.0,83,0.00,,,0.00,Wunderground v.1.15,2013-01-24 00:34:00,
2013-01-23 19:40:00,18.3,14.0,30.12,WSW,241,7.0,8.0,83,0.00,,,0.00,Wunderground v.1.15,2013-01-24 00:40:00,
2013-01-23 19:46:00,18.3,14.0,30.12,WSW,245,6.0,8.0,83,0.00,,,0.00,Wunderground v.1.15,2013-01-24 00:46:00,
2013-01-23 19:52:00,18.3,13.7,30.12,WSW,239,6.0,6.0,82,0.00,,,0.00,Wunderground v.1.15,2013-01-24 00:52:00,
2013-01-23 19:58:00,18.3,13.7,30.11,WSW,238,7.0,7.0,82,0.00,,,0.00,Wunderground v.1.15,2013-01-24 00:58:00,
2013-01-23 20:04:00,18.4,13.8,30.11,SW,228,6.0,8.0,82,0.00,,,0.00,Wunderground v.1.15,2013-01-24 01:04:00,
2013-01-23 20:10:00,18.4,14.1,30.11,WSW,240,6.0,6.0,83,0.00,,,0.00,Wunderground v.1.15,2013-01-24 01:10:00,
2013-01-23 20:16:00,18.5,13.9,30.11,WSW,251,6.0,6.0,82,0.00,,,0.00,Wunderground v.1.15,2013-01-24 01:16:00,
2013-01-23 20:22:00,18.5,13.9,30.11,WSW,238,6.0,7.0,82,0.00,,,0.00,Wunderground v.1.15,2013-01-24 01:22:00,
2013-01-23 20:28:00,18.5,13.9,30.11,West,264,7.0,8.0,82,0.00,,,0.00,Wunderground v.1.15,2013-01-24 01:28:00,
2013-01-23 20:34:00,18.5,14.2,30.11,WSW,250,6.0,7.0,83,0.00,,,0.00,Wunderground v.1.15,2013-01-24 01:34:00,
2013-01-23 20:40:00,18.5,14.2,30.11,WSW,242,5.0,5.0,83,0.00,,,0.00,Wunderground v.1.15,2013-01-24 01:40:00,
2013-01-23 20:46:00,18.6,14.3,30.11,WSW,242,4.0,5.0,83,0.00,,,0.00,Wunderground v.1.15,2013-01-24 01:46:00,
2013-01-23 20:52:00,18.5,14.2,30.11,SW,228,4.0,4.0,83,0.00,,,0.00,Wunderground v.1.15,2013-01-24 01:52:00,
2013-01-23 20:58:00,18.5,14.2,30.11,WSW,248,4.0,5.0,83,0.00,,,0.00,Wunderground v.1.15,2013-01-24 01:58:00,
2013-01-23 21:04:00,18.5,14.2,30.11,WSW,242,4.0,4.0,83,0.00,,,0.00,Wunderground v.1.15,2013-01-24 02:04:00,
2013-01-23 21:10:00,18.5,14.5,30.11,WSW,242,3.0,4.0,84,0.00,,,0.00,Wunderground v.1.15,2013-01-24 02:10:00,
2013-01-23 21:16:00,18.6,14.6,30.11,WSW,239,3.0,4.0,84,0.00,,,0.00,Wunderground v.1.15,2013-01-24 02:16:00,
2013-01-23 21:22:00,18.7,14.7,30.12,WSW,241,4.0,4.0,84,0.00,,,0.00,Wunderground v.1.15,2013-01-24 02:22:00,
2013-01-23 21:28:00,18.8,14.8,30.12,West,268,5.0,6.0,84,0.00,,,0.00,Wunderground v.1.15,2013-01-24 02:28:00,
2013-01-23 21:34:00,18.8,14.8,30.12,WSW,258,5.0,6.0,84,0.00,,,0.00,Wunderground v.1.15,2013-01-24 02:34:00,
2013-01-23 21:40:00,18.9,14.9,30.13,West,263,5.0,7.0,84,0.00,,,0.00,Wunderground v.1.15,2013-01-24 02:40:00,
2013-01-23 21:46:00,19.0,15.2,30.13,West,270,6.0,7.0,85,0.00,,,0.00,Wunderground v.1.15,2013-01-24 02:46:00,
2013-01-23 21:52:00,19.1,15.3,30.12,WNW,283,6.0,8.0,85,0.00,,,0.00,Wunderground v.1.15,2013-01-24 02:52:00,
2013-01-23 21:58:00,19.1,15.1,30.13,West,259,6.0,8.0,84,0.00,,,0.00,Wunderground v.1.15,2013-01-24 02:58:00,
2013-01-23 22:04:00,19.2,15.2,30.12,West,270,7.0,10.0,84,0.00,,,0.00,Wunderground v.1.15,2013-01-24 03:04:00,
2013-01-23 22:10:00,19.3,15.0,30.12,West,281,8.0,8.0,83,0.00,,,0.00,Wunderground v.1.15,2013-01-24 03:10:00,
2013-01-23 22:16:00,19.5,14.9,30.13,West,277,8.0,11.0,82,0.00,,,0.00,Wunderground v.1.15,2013-01-24 03:16:00,
2013-01-23 22:22:00,19.7,14.8,30.13,WNW,283,9.0,10.0,81,0.00,,,0.00,Wunderground v.1.15,2013-01-24 03:22:00,
2013-01-23 22:28:00,19.8,14.6,30.13,WNW,283,9.0,10.0,80,0.00,,,0.00,Wunderground v.1.15,2013-01-24 03:28:00,
2013-01-23 22:34:00,19.7,14.2,30.13,West,281,10.0,10.0,79,0.00,,,0.00,Wunderground v.1.15,2013-01-24 03:34:00,
2013-01-23 22:40:00,19.6,14.1,30.13,WNW,285,10.0,10.0,79,0.00,,,0.00,Wunderground v.1.15,2013-01-24 03:40:00,
2013-01-23 22:46:00,19.3,13.6,30.13,NW,304,10.0,13.0,78,0.00,,,0.00,Wunderground v.1.15,2013-01-24 03:46:00,
2013-01-23 22:52:00,19.2,12.9,30.13,WNW,283,12.0,21.0,76,0.00,,,0.00,Wunderground v.1.15,2013-01-24 03:52:00,
2013-01-23 22:58:00,19.2,12.9,30.13,West,276,13.0,21.0,76,0.00,,,0.00,Wunderground v.1.15,2013-01-24 03:58:00,
2013-01-23 23:04:00,18.7,13.0,30.13,West,274,10.0,12.0,78,0.00,,,0.00,Wunderground v.1.15,2013-01-24 04:04:00,
2013-01-23 23:10:00,18.5,13.1,30.13,WNW,283,9.0,9.0,79,0.00,,,0.00,Wunderground v.1.15,2013-01-24 04:10:00,
2013-01-23 23:16:00,18.3,12.9,30.14,WNW,288,10.0,11.0,79,0.00,,,0.00,Wunderground v.1.15,2013-01-24 04:16:00,
2013-01-23 23:22:00,18.3,12.9,30.14,WNW,285,11.0,12.0,79,0.00,,,0.00,Wunderground v.1.15,2013-01-24 04:22:00,
2013-01-23 23:28:00,18.2,13.1,30.14,WNW,302,12.0,13.0,80,0.00,,,0.00,Wunderground v.1.15,2013-01-24 04:28:00,
2013-01-23 23:34:00,18.1,13.0,30.15,WNW,297,11.0,13.0,80,0.00,,,0.00,Wunderground v.1.15,2013-01-24 04:34:00,
2013-01-23 23:40:00,17.9,12.8,30.15,WNW,298,10.0,14.0,80,0.00,,,0.00,Wunderground v.1.15,2013-01-24 04:40:00,
2013-01-23 23:46:00,17.7,12.9,30.15,WNW,301,10.0,14.0,81,0.00,,,0.00,Wunderground v.1.15,2013-01-24 04:46:00,
2013-01-23 23:52:00,17.7,12.9,30.15,WNW,287,11.0,16.0,81,0.00,,,0.00,Wunderground v.1.15,2013-01-24 04:52:00,
2013-01-23 23:58:00,17.4,12.8,30.15,NW,311,10.0,16.0,82,0.00,,,0.00,Wunderground v.1.15,2013-01-24 04:58:00,